CW2615 Weather Reports


time (UTC)temp
C
wind
direction
speed
KPH
gust
KPH
rain 1hr
cm
rain 24hr
cm
rain mn
cm
humidity
%
barometer
mb
20260507221315 8 0 0.0 0.0 0.00 0.00 0.00 60 1010.1
20260507220835 8 0 0.0 0.0 0.00 0.00 0.00 61 1010.1
20260507220315 8 0 0.0 0.0 0.00 0.00 0.00 58 1010.1
20260507215915 8 0 0.0 0.0 0.00 0.00 0.00 58 1010.2
20260507215315 9 0 0.0 0.0 0.00 0.00 0.00 58 1010.2
20260507214836 9 0 0.0 0.0 0.00 0.00 0.00 58 1010.2
20260507214315 9 0 0.0 0.0 0.00 0.00 0.00 57 1010.3
20260507213815 9 0 0.0 0.0 0.00 0.00 0.00 58 1010.3
20260507213315 9 0 0.0 0.0 0.00 0.00 0.00 57 1010.3
20260507212815 9 0 0.0 0.0 0.00 0.00 0.00 58 1010.2
20260507212315 10 0 0.0 0.0 0.00 0.00 0.00 57 1010.3
20260507211815 10 0 0.0 0.0 0.00 0.00 0.00 58 1010.1
20260507211315 10 0 0.0 0.0 0.00 0.00 0.00 58 1010.1
20260507210815 10 0 0.0 0.0 0.00 0.00 0.00 59 1010.0
20260507210315 10 0 0.0 0.0 0.00 0.00 0.00 57 1010.0
20260507205815 10 0 0.0 0.0 0.00 0.00 0.00 59 1010.0
20260507205335 10 0 0.0 0.0 0.00 0.00 0.00 58 1010.1
20260507204815 10 0 0.0 0.0 0.00 0.00 0.00 60 1010.1
20260507204315 10 0 0.0 0.0 0.00 0.00 0.00 60 1010.1
20260507203815 10 0 0.0 0.0 0.00 0.00 0.00 59 1010.1
20260507203315 10 0 0.0 0.0 0.00 0.00 0.00 60 1010.1
20260507202815 10 0 0.0 0.0 0.00 0.00 0.00 56 1010.1
20260507202315 10 0 0.0 0.0 0.00 0.00 0.00 59 1010.1
20260507201815 10 0 0.0 0.0 0.00 0.00 0.00 59 1010.1
20260507201316 10 0 0.0 0.0 0.00 0.00 0.00 59 1010.2
20260507200815 10 0 0.0 0.0 0.00 0.00 0.00 61 1010.2
20260507200315 10 0 0.0 0.0 0.00 0.00 0.00 59 1010.1
20260507195815 10 0 0.0 0.0 0.00 0.00 0.00 59 1010.4
20260507195315 10 0 0.0 0.0 0.00 0.00 0.00 60 1010.3
20260507194815 10 0 0.0 0.0 0.00 0.00 0.00 60 1010.2
20260507194315 9 0 0.0 0.0 0.00 0.00 0.00 62 1010.3
20260507193815 9 0 0.0 0.0 0.00 0.00 0.00 63 1010.3
20260507193315 9 0 0.0 0.0 0.00 0.00 0.00 63 1010.4
20260507192815 9 0 0.0 0.0 0.00 0.00 0.00 62 1010.3
20260507192315 9 0 0.0 0.0 0.00 0.00 0.00 60 1010.6
20260507191835 9 0 0.0 0.0 0.00 0.00 0.00 61 1010.5
20260507191315 9 0 0.0 0.0 0.00 0.00 0.00 62 1010.5
20260507190835 9 0 0.0 0.0 0.00 0.00 0.00 60 1010.6
20260507190335 10 0 0.0 0.0 0.00 0.00 0.00 64 1010.6
20260507185816 10 0 0.0 0.0 0.00 0.00 0.00 61 1010.7
20260507185315 10 0 0.0 0.0 0.00 0.00 0.00 62 1010.8
20260507184815 10 0 0.0 0.0 0.00 0.00 0.00 61 1010.7
20260507184316 10 0 0.0 0.0 0.00 0.00 0.00 60 1010.8
20260507183816 10 0 0.0 0.0 0.00 0.00 0.00 61 1010.7
20260507183335 10 0 0.0 0.0 0.00 0.00 0.00 61 1010.7
20260507182815 10 0 0.0 0.0 0.00 0.00 0.00 60 1010.8
20260507182315 10 0 0.0 0.0 0.00 0.00 0.00 60 1010.8
20260507181816 10 0 0.0 0.0 0.00 0.00 0.00 58 1010.8
20260507181315 10 0 0.0 0.0 0.00 0.00 0.00 58 1010.8
20260507180815 10 0 0.0 0.0 0.00 0.00 0.00 60 1010.8
20260507180315 10 0 0.0 0.0 0.00 0.00 0.00 60 1010.9
20260507175815 10 0 0.0 0.0 0.00 0.00 0.00 63 1011.0
20260507175335 10 0 0.0 0.0 0.00 0.00 0.00 62 1010.8
20260507174815 10 0 0.0 0.0 0.00 0.00 0.00 62 1010.8
20260507174315 9 0 0.0 0.0 0.00 0.00 0.00 61 1011.0
20260507173815 9 0 0.0 0.0 0.00 0.00 0.00 62 1011.0
20260507173315 9 0 0.0 0.0 0.00 0.00 0.00 62 1011.2
20260507172815 9 0 0.0 0.0 0.00 0.00 0.00 62 1011.1
20260507172315 8 0 0.0 0.0 0.00 0.00 0.00 62 1011.2
20260507171815 8 0 0.0 0.0 0.00 0.00 0.00 61 1011.4
20260507171335 8 0 0.0 0.0 0.00 0.00 0.00 62 1011.4
20260507170816 8 0 0.0 0.0 0.00 0.00 0.00 60 1011.4
20260507170315 8 0 0.0 0.0 0.00 0.00 0.00 62 1011.5
20260507165815 8 0 0.0 0.0 0.00 0.00 0.00 61 1011.6
20260507165315 8 0 0.0 0.0 0.00 0.00 0.00 61 1011.5
20260507164815 9 0 0.0 0.0 0.00 0.00 0.00 66 1011.7
20260507164315 8 0 0.0 0.0 0.00 0.00 0.00 64 1011.6
20260507163815 8 0 0.0 0.0 0.00 0.00 0.00 64 1011.7
20260507163315 8 0 0.0 0.0 0.00 0.00 0.00 64 1011.7
20260507162815 8 0 0.0 0.0 0.00 0.00 0.00 63 1011.7
20260507162315 8 0 0.0 0.0 0.00 0.00 0.00 63 1011.8
20260507161815 9 0 0.0 0.0 0.00 0.00 0.00 63 1011.9
20260507161315 8 0 0.0 0.0 0.00 0.00 0.00 64 1011.8
20260507160816 8 0 0.0 0.0 0.00 0.00 0.00 65 1011.8
20260507160315 8 0 0.0 0.0 0.00 0.00 0.00 66 1011.9
20260507155835 8 0 0.0 0.0 0.00 0.00 0.00 66 1012.0
20260507155315 8 0 0.0 0.0 0.00 0.00 0.00 67 1012.0
20260507154835 8 0 0.0 0.0 0.00 0.00 0.00 70 1012.1
20260507154315 8 0 0.0 0.0 0.00 0.00 0.00 70 1012.1
20260507153835 8 0 0.0 0.0 0.00 0.00 0.00 70 1012.0
20260507153316 8 0 0.0 0.0 0.00 0.00 0.00 71 1012.1
20260507152815 8 0 0.0 0.0 0.00 0.00 0.00 71 1012.1
20260507152336 8 0 0.0 0.0 0.00 0.00 0.00 70 1012.2
20260507151815 8 0 0.0 0.0 0.00 0.00 0.00 72 1012.2
20260507151315 8 0 0.0 0.0 0.00 0.00 0.00 75 1012.1
20260507150815 8 0 0.0 0.0 0.00 0.00 0.00 76 1012.3
20260507150316 7 0 0.0 0.0 0.00 0.00 0.00 73 1012.2
20260507145855 7 0 0.0 0.0 0.00 0.00 0.00 78 1012.2
20260507145315 7 0 0.0 0.0 0.00 0.00 0.00 80 1012.2
20260507144835 7 0 0.0 0.0 0.00 0.00 0.00 80 1012.2
20260507144335 6 0 0.0 0.0 0.00 0.00 0.00 81 1012.2
20260507143815 6 0 0.0 0.0 0.00 0.00 0.00 82 1012.2
20260507143315 6 0 0.0 0.0 0.00 0.00 0.00 82 1012.3
20260507142815 6 0 0.0 0.0 0.00 0.00 0.00 84 1012.3
20260507142315 6 0 0.0 0.0 0.00 0.00 0.00 84 1012.5
20260507141815 6 0 0.0 0.0 0.00 0.00 0.00 86 1012.3
20260507141315 5 0 0.0 0.0 0.00 0.00 0.00 85 1012.3
20260507140815 5 0 0.0 0.0 0.00 0.00 0.00 87 1012.3
20260507140315 5 0 0.0 0.0 0.00 0.00 0.00 87 1012.4
20260507135815 5 0 0.0 0.0 0.00 0.00 0.00 86 1012.3
20260507135315 5 0 0.0 0.0 0.00 0.00 0.00 86 1012.3
20260507134816 5 0 0.0 0.0 0.00 0.00 0.00 86 1012.3
20260507134316 5 0 0.0 0.0 0.00 0.00 0.00 87 1012.3
20260507133815 5 0 0.0 0.0 0.00 0.00 0.00 88 1012.3
20260507133316 5 0 0.0 0.0 0.00 0.00 0.00 88 1012.2
20260507132835 5 0 0.0 0.0 0.00 0.00 0.00 92 1012.3
20260507132315 5 0 0.0 0.0 0.00 0.00 0.00 91 1012.2
20260507131816 5 0 0.0 0.0 0.00 0.00 0.00 91 1012.2
20260507131335 4 0 0.0 0.0 0.00 0.00 0.00 93 1012.2
20260507130816 4 0 0.0 0.0 0.00 0.00 0.00 94 1012.1
20260507130315 4 0 0.0 0.0 0.00 0.00 0.00 94 1012.1
20260507125815 3 0 0.0 0.0 0.00 0.00 0.00 95 1012.2
20260507125315 3 0 0.0 0.0 0.00 0.00 0.00 95 1012.2
20260507124815 3 0 0.0 0.0 0.00 0.00 0.00 95 1012.2
20260507124336 3 0 0.0 0.0 0.00 0.00 0.00 96 1012.1
20260507123815 2 0 0.0 0.0 0.00 0.00 0.00 95 1012.2
20260507123316 2 0 0.0 0.0 0.00 0.00 0.00 96 1012.1
20260507122835 2 0 0.0 0.0 0.00 0.00 0.00 97 1012.3
20260507122335 2 0 0.0 0.0 0.00 0.00 0.00 98 1012.1
20260507121815 2 0 0.0 0.0 0.00 0.00 0.00 98 1012.1
20260507121335 1 0 0.0 0.0 0.00 0.00 0.00 99 1012.2
20260507120815 1 0 0.0 0.0 0.00 0.00 0.00 100 1012.0
20260507120315 1 0 0.0 0.0 0.00 0.00 0.00 100 1012.0
20260507115816 1 0 0.0 0.0 0.00 0.00 0.00 100 1012.0
20260507115315 0 0 0.0 0.0 0.00 0.00 0.00 100 1011.8
20260507114835 0 0 0.0 0.0 0.00 0.00 0.00 100 1011.7
20260507114315 0 0 0.0 0.0 0.00 0.00 0.00 100 1011.7
20260507113915 0 0 0.0 0.0 0.00 0.00 0.00 100 1011.7
20260507113336 0 0 0.0 0.0 0.00 0.00 0.00 100 1011.6
20260507112815 0 0 0.0 0.0 0.00 0.00 0.00 100 1011.6
20260507112315 -1 0 0.0 0.0 0.00 0.00 0.00 100 1011.6
20260507111815 -1 0 0.0 0.0 0.00 0.00 0.00 100 1011.6
20260507111315 -1 0 0.0 0.0 0.00 0.00 0.00 100 1011.4
20260507110835 -1 0 0.0 0.0 0.00 0.00 0.00 100 1011.5
20260507110316 -1 0 0.0 0.0 0.00 0.00 0.00 100 1011.4
20260507105835 -1 0 0.0 0.0 0.00 0.00 0.00 100 1011.4
20260507105315 -1 0 0.0 0.0 0.00 0.00 0.00 100 1011.4
20260507104815 -1 0 0.0 0.0 0.00 0.00 0.00 100 1011.4
20260507104315 -1 0 0.0 0.0 0.00 0.00 0.00 100 1011.3
20260507103836 -1 0 0.0 0.0 0.00 0.00 0.00 100 1011.2
20260507103315 -1 0 0.0 0.0 0.00 0.00 0.00 100 1011.3
20260507102816 -1 0 0.0 0.0 0.00 0.00 0.00 100 1011.2
20260507102315 -1 0 0.0 0.0 0.00 0.00 0.00 100 1011.3
20260507101856 -1 0 0.0 0.0 0.00 0.00 0.00 100 1011.2
20260507101316 -1 0 0.0 0.0 0.00 0.00 0.00 100 1011.3
20260507100816 -1 0 0.0 0.0 0.00 0.00 0.00 100 1011.3
20260507100316 -1 0 0.0 0.0 0.00 0.00 0.00 100 1011.3
20260507095815 -1 0 0.0 0.0 0.00 0.00 0.00 100 1011.2
20260507095315 -1 0 0.0 0.0 0.00 0.00 0.00 100 1011.3
20260507094855 -1 0 0.0 0.0 0.00 0.00 0.00 100 1011.3
20260507094316 -1 0 0.0 0.0 0.00 0.00 0.00 100 1011.4
20260507093816 -1 0 0.0 0.0 0.00 0.00 0.00 100 1011.3
20260507093315 -1 0 0.0 0.0 0.00 0.00 0.00 100 1011.1
20260507092815 0 0 0.0 0.0 0.00 0.00 0.00 100 1011.3
20260507092315 0 0 0.0 0.0 0.00 0.00 0.00 100 1011.4
20260507091815 0 0 0.0 0.0 0.00 0.00 0.00 100 1011.4
20260507091315 0 0 0.0 0.0 0.00 0.00 0.00 100 1011.5
20260507090815 0 0 0.0 0.0 0.00 0.00 0.00 100 1011.6
20260507090315 0 0 0.0 0.0 0.00 0.00 0.00 100 1011.6
20260507085815 0 0 0.0 0.0 0.00 0.00 0.00 100 1011.8
20260507085316 0 0 0.0 0.0 0.00 0.00 0.00 100 1011.5
20260507084815 0 0 0.0 0.0 0.00 0.00 0.00 100 1011.7
20260507084316 -1 0 0.0 0.0 0.00 0.00 0.00 100 1011.8
20260507083816 -1 0 0.0 0.0 0.00 0.00 0.00 100 1011.7
20260507083315 -1 0 0.0 0.0 0.00 0.00 0.00 100 1011.9
20260507082815 -1 0 0.0 0.0 0.00 0.00 0.00 100 1011.9
20260507082335 -1 0 0.0 0.0 0.00 0.00 0.00 100 1011.8
20260507081815 -1 0 0.0 0.0 0.00 0.00 0.00 100 1011.7
20260507081316 -1 0 0.0 0.0 0.00 0.00 0.00 100 1011.8
20260507080815 -1 0 0.0 0.0 0.00 0.00 0.00 100 1011.8
20260507080335 -1 0 0.0 0.0 0.00 0.00 0.00 100 1011.8
20260507075815 0 0 0.0 0.0 0.00 0.00 0.00 100 1011.8
20260507075315 0 0 0.0 0.0 0.00 0.00 0.00 99 1011.9
20260507074816 0 0 0.0 0.0 0.00 0.00 0.00 99 1011.8
20260507074315 0 0 0.0 0.0 0.00 0.00 0.00 100 1012.0
20260507073815 0 0 0.0 0.0 0.00 0.00 0.00 100 1011.8
20260507073315 0 0 0.0 0.0 0.00 0.00 0.00 100 1011.9
20260507072815 0 0 0.0 0.0 0.00 0.00 0.00 99 1011.8
20260507072315 0 0 0.0 0.0 0.00 0.00 0.00 99 1011.8
20260507071815 0 0 0.0 0.0 0.00 0.00 0.00 99 1011.9
20260507071335 0 0 0.0 0.0 0.00 0.00 0.00 99 1012.0
20260507070815 0 0 0.0 0.0 0.00 0.00 0.00 99 1012.0
20260507070336 0 0 0.0 0.0 0.00 0.00 0.00 98 1012.0
20260507065835 0 0 0.0 0.0 0.00 0.00 0.00 98 1012.1
20260507065315 0 0 0.0 0.0 0.00 0.00 0.00 98 1012.1
20260507064815 0 0 0.0 0.0 0.00 0.00 0.00 98 1012.3
20260507064315 0 0 0.0 0.0 0.00 0.00 0.00 97 1012.3
20260507063815 0 0 0.0 0.0 0.00 0.00 0.00 97 1012.4
20260507063315 0 0 0.0 0.0 0.00 0.00 0.00 97 1012.3
20260507062815 0 0 0.0 0.0 0.00 0.00 0.00 97 1012.4
20260507062316 0 0 0.0 0.0 0.00 0.00 0.00 96 1012.5
20260507061815 0 0 0.0 0.0 0.00 0.00 0.00 95 1012.4
20260507061315 0 0 0.0 0.0 0.00 0.00 0.00 96 1012.6
20260507060836 0 0 0.0 0.0 0.00 0.00 0.00 95 1012.5
20260507060315 0 0 0.0 0.0 0.00 0.00 0.00 95 1012.5
20260507055815 0 0 0.0 0.0 0.00 0.00 0.00 94 1012.6
20260507055316 0 0 0.0 0.0 0.00 0.00 0.00 94 1012.6
20260507054815 0 0 0.0 0.0 0.00 0.00 0.00 94 1012.6
20260507054336 0 0 0.0 0.0 0.00 0.00 0.00 92 1012.7
20260507053815 1 0 0.0 0.0 0.00 0.00 0.00 92 1012.7
20260507053315 1 0 0.0 0.0 0.00 0.00 0.00 92 1012.8
20260507052816 1 0 0.0 0.0 0.00 0.00 0.00 92 1012.8
20260507052315 1 0 0.0 0.0 0.00 0.00 0.00 92 1012.8
20260507051815 1 0 0.0 0.0 0.00 0.00 0.00 92 1012.9
20260507051335 1 0 0.0 0.0 0.00 0.00 0.00 91 1012.9
20260507050835 1 0 0.0 0.0 0.00 0.00 0.00 91 1012.9
20260507050316 1 0 0.0 0.0 0.00 0.00 0.00 91 1012.9
20260507045815 1 0 0.0 0.0 0.00 0.00 0.00 92 1012.9
20260507045335 1 0 0.0 0.0 0.00 0.00 0.00 92 1012.9
20260507044835 2 0 0.0 0.0 0.00 0.00 0.00 92 1013.0
20260507044316 2 0 0.0 0.0 0.00 0.00 0.00 91 1012.9
20260507043816 2 0 0.0 0.0 0.00 0.00 0.00 88 1012.8
20260507043336 2 0 0.0 0.0 0.00 0.00 0.00 87 1012.9
20260507042815 2 0 0.0 0.0 0.00 0.00 0.00 87 1012.8
20260507042335 2 0 0.0 0.0 0.00 0.00 0.00 85 1012.9
20260507041816 2 0 0.0 0.0 0.00 0.00 0.00 85 1012.9
20260507041315 2 0 0.0 0.0 0.00 0.00 0.00 84 1012.9
20260507040815 2 0 0.0 0.0 0.00 0.00 0.00 85 1013.0
20260507040315 2 0 0.0 0.0 0.00 0.00 0.00 86 1012.9
20260507035816 2 0 0.0 0.0 0.00 0.00 0.00 84 1013.0
20260507035335 2 0 0.0 0.0 0.00 0.00 0.00 83 1013.0
20260507034815 2 0 0.0 0.0 0.00 0.00 0.00 83 1012.9
20260507034316 3 0 0.0 0.0 0.00 0.00 0.00 82 1013.0
20260507033815 3 0 0.0 0.0 0.00 0.00 0.00 83 1012.8
20260507033315 3 0 0.0 0.0 0.00 0.00 0.00 83 1013.0
20260507032835 3 0 0.0 0.0 0.00 0.00 0.00 83 1013.0
20260507032316 3 0 0.0 0.0 0.00 0.00 0.00 83 1013.2
20260507031815 3 0 0.0 0.0 0.00 0.00 0.00 83 1013.1
20260507031335 3 0 0.0 0.0 0.00 0.00 0.00 82 1013.0
20260507030815 3 0 0.0 0.0 0.00 0.00 0.00 81 1013.1
20260507030315 3 0 0.0 0.0 0.00 0.00 0.00 83 1013.2
20260507025836 3 0 0.0 0.0 0.00 0.00 0.00 81 1013.1
20260507025315 3 0 0.0 0.0 0.00 0.00 0.00 81 1013.0
20260507024836 3 0 0.0 0.0 0.00 0.00 0.00 81 1013.0
20260507024335 3 0 0.0 0.0 0.00 0.00 0.00 81 1013.1
20260507023815 3 0 0.0 0.0 0.00 0.00 0.00 81 1013.1
20260507023315 3 0 0.0 0.0 0.00 0.00 0.00 79 1013.0
20260507022815 3 0 0.0 0.0 0.00 0.00 0.00 79 1013.0
20260507022315 3 0 0.0 0.0 0.00 0.00 0.00 79 1012.9
20260507021815 3 0 0.0 0.0 0.00 0.00 0.00 79 1012.8
20260507021316 3 0 0.0 0.0 0.00 0.00 0.00 78 1012.9
20260507020816 3 0 0.0 0.0 0.00 0.00 0.00 78 1012.8
20260507020316 3 0 0.0 0.0 0.00 0.00 0.00 78 1012.9
20260507015816 3 0 0.0 0.0 0.00 0.00 0.00 78 1012.9
20260507015335 3 0 0.0 0.0 0.00 0.00 0.00 77 1012.8
20260507014816 3 0 0.0 0.0 0.00 0.00 0.00 78 1012.9
20260507014316 3 0 0.0 0.0 0.00 0.00 0.00 78 1013.0
20260507013815 3 0 0.0 0.0 0.00 0.00 0.00 78 1012.8
20260507013316 3 0 0.0 0.0 0.00 0.00 0.00 77 1012.7
20260507012816 4 0 0.0 0.0 0.00 0.00 0.00 77 1012.8
20260507012315 4 0 0.0 0.0 0.00 0.00 0.00 77 1012.7
20260507011815 4 0 0.0 0.0 0.00 0.00 0.00 75 1012.7
20260507011316 4 0 0.0 0.0 0.00 0.00 0.00 77 1012.8
20260507010816 4 0 0.0 0.0 0.00 0.00 0.00 75 1012.7
20260507010316 4 0 0.0 0.0 0.00 0.00 0.00 74 1012.6
20260507005816 4 0 0.0 0.0 0.00 0.00 0.00 74 1012.5
20260507005316 4 0 0.0 0.0 0.00 0.00 0.00 74 1012.7
20260507004815 5 0 0.0 0.0 0.00 0.00 0.00 74 1012.6
20260507004315 5 0 0.0 0.0 0.00 0.00 0.00 73 1012.6
20260507003815 5 0 0.0 0.0 0.00 0.00 0.00 73 1012.7
20260507003315 5 0 0.0 0.0 0.00 0.00 0.00 74 1012.7
20260507002816 5 0 0.0 0.0 0.00 0.00 0.00 72 1012.6
20260507002315 5 0 0.0 0.0 0.00 0.00 0.00 73 1012.6
20260507001816 5 0 0.0 0.0 0.00 0.00 0.00 70 1012.5
20260507001316 5 0 0.0 0.0 0.00 0.00 0.00 71 1012.5
20260507000815 5 0 0.0 0.0 0.00 0.00 0.00 71 1012.4
20260507000315 5 0 0.0 0.0 0.00 0.00 0.00 71 1012.4
20260506235835 5 0 0.0 0.0 0.00 0.00 0.00 72 1012.5
20260506235315 5 0 0.0 0.0 0.00 0.00 0.00 71 1012.4
20260506234836 5 0 0.0 0.0 0.00 0.00 0.00 71 1012.5
20260506234315 5 0 0.0 0.0 0.00 0.00 0.00 71 1012.5
20260506233815 5 0 0.0 0.0 0.00 0.00 0.00 70 1012.4
20260506233316 5 0 0.0 0.0 0.00 0.00 0.00 70 1012.4
20260506232816 5 0 0.0 0.0 0.00 0.00 0.00 70 1012.5
20260506232316 5 0 0.0 0.0 0.00 0.00 0.00 68 1012.5
20260506231815 5 0 0.0 0.0 0.00 0.00 0.00 72 1012.5
20260506231335 5 0 0.0 0.0 0.00 0.00 0.00 71 1012.4
20260506230836 5 0 0.0 0.0 0.00 0.00 0.00 70 1012.5
20260506230315 5 0 0.0 0.0 0.00 0.00 0.00 68 1012.7
20260506225816 5 0 0.0 0.0 0.00 0.00 0.00 68 1012.5
20260506225316 6 0 0.0 0.0 0.00 0.00 0.00 68 1012.5
20260506224816 6 0 0.0 0.0 0.00 0.00 0.00 68 1012.6
20260506224315 6 0 0.0 0.0 0.00 0.00 0.00 68 1012.6
20260506223836 6 0 0.0 0.0 0.00 0.00 0.00 67 1012.6
20260506223315 6 0 0.0 0.0 0.00 0.00 0.00 67 1012.5
20260506222815 6 0 0.0 0.0 0.00 0.00 0.00 67 1012.5
20260506222315 6 0 0.0 0.0 0.00 0.00 0.00 66 1012.5
20260506221816 6 0 0.0 0.0 0.00 0.00 0.00 67 1012.4